Jaffrey, NH

11:00 AM EDT on August 25, 2016 (GMT -0400)
Jaffrey Airport-Silver Ranch

Weather History for KAFN - May, 2013

Change the Weather History Date:

Wednesday, May 29, 2013

  Actual Average Record
Temperature  
Mean Temperature 62 °F -  
Max Temperature 70 °F 65 °F 86 °F (1998)
Min Temperature 55 °F 44 °F 39 °F (2008)
Degree Days  
Heating Degree Days 3    
Growing Degree Days 12 (Base 50)    
Moisture  
Dew Point 58 °F    
Average Humidity 89    
Maximum Humidity 96    
Minimum Humidity 77    
Precipitation  
Precipitation 0.50 in - - ()
Sea Level Pressure  
Sea Level Pressure 30.09 in    
Wind  
Wind Speed 2 mph (South)    
Max Wind Speed 9 mph    
Max Gust Speed -    
Visibility 8 miles    
Events Rain , Thunderstorm    
Averages and records for this station are not official NWS values.
T = Trace of Precipitation, MM = Missing Value Source: NWS Daily Summary

Daily Weather History Graph

Daily Weather History Graph

Search for Another Location

Airport or City:

Trip Planner

Search our weather history database for the weather conditions in past years. The results will help you decide how hot, cold, wet, or windy it might be!

Date:

Astronomy

May. 29, 2013 Rise Set
Actual Time 5:13 AM EDT 8:17 PM EDT
Civil Twilight 4:39 AM EDT 8:51 PM EDT
Nautical Twilight 3:56 AM EDT 9:35 PM EDT
Astronomical Twilight 3:04 AM EDT 10:27 PM EDT
Moon No Moon Rise 10:13 AM EDT (5/29)
Length of Visible Light 16h 11m
Length of Day
15h 03m
Waning Gibbous, 73% of the Moon is Illuminated
May 29
Waning Gibbous
May 31
Last Quarter
Jun 8
New
Jun 16
First Quarter
Jun 23
Full

Hourly Weather History & Observations

Time (EDT) Temp. Dew Point Humidity Pressure Visibility Wind Dir Wind Speed Gust Speed Precip Events Conditions
12:52 AM 57.0 °F 50.0 °F 77% 30.19 in 10.0 mi Calm Calm - N/A   Overcast
1:04 AM 57.2 °F 50.0 °F 77% 30.17 in 10.0 mi South 3.5 mph - N/A   Overcast
1:52 AM 57.0 °F 52.0 °F 83% 30.17 in 10.0 mi South 8.1 mph - N/A   Overcast
2:18 AM 57.2 °F 53.6 °F 88% 30.15 in 10.0 mi South 5.8 mph - N/A   Overcast
2:52 AM 57.0 °F 53.1 °F 87% 30.16 in 10.0 mi South 5.8 mph - 0.00 in Rain Light Rain
3:45 AM 55.4 °F 53.6 °F 94% 30.12 in 8.0 mi SSE 3.5 mph - 0.04 in Rain Light Rain
3:52 AM 55.9 °F 54.0 °F 93% 30.13 in 10.0 mi Calm Calm - 0.04 in Rain Light Rain
4:36 AM 55.4 °F 53.6 °F 94% 30.11 in 4.0 mi Calm Calm - 0.03 in Rain Rain
4:52 AM 55.0 °F 54.0 °F 96% 30.13 in 2.5 mi Calm Calm - 0.06 in Rain Heavy Rain
5:00 AM 55.4 °F 53.6 °F 94% 30.11 in 2.5 mi Calm Calm - 0.02 in Rain Heavy Rain
5:10 AM 55.4 °F 53.6 °F 94% 30.11 in 4.0 mi Calm Calm - 0.07 in Rain Rain
5:52 AM 55.0 °F 54.0 °F 96% 30.14 in 8.0 mi Calm Calm - 0.15 in Rain Light Rain
6:52 AM 55.9 °F 54.0 °F 93% 30.14 in 10.0 mi Calm Calm - 0.01 in   Overcast
7:52 AM 55.9 °F 54.0 °F 93% 30.13 in 10.0 mi Calm Calm - 0.01 in   Overcast
8:52 AM 57.0 °F 55.0 °F 93% 30.13 in 4.0 mi Calm Calm - N/A   Overcast
9:52 AM 57.0 °F 55.0 °F 93% 30.13 in 10.0 mi Calm Calm - N/A   Overcast
10:52 AM 57.9 °F 55.9 °F 93% 30.12 in 7.0 mi South 4.6 mph - 0.01 in Rain Light Rain
11:52 AM 59.0 °F 57.0 °F 93% 30.09 in 10.0 mi SSW 5.8 mph - 0.01 in   Overcast
12:52 PM 60.1 °F 57.0 °F 90% 30.09 in 10.0 mi South 3.5 mph - N/A   Overcast
1:52 PM 61.0 °F 57.9 °F 90% 30.09 in 10.0 mi SSW 3.5 mph - N/A   Overcast
2:41 PM 62.6 °F 59.0 °F 88% 30.06 in 10.0 mi Calm Calm - N/A   Overcast
2:52 PM 64.0 °F 59.0 °F 84% 30.07 in 10.0 mi Calm Calm - N/A   Overcast
3:32 PM 64.4 °F 59.0 °F 83% 30.06 in 10.0 mi South 3.5 mph - N/A   Overcast
3:52 PM 64.9 °F 60.1 °F 84% 30.08 in 10.0 mi Calm Calm - N/A   Overcast
4:38 PM 66.2 °F 60.8 °F 83% 30.05 in 10.0 mi Calm Calm - N/A   Overcast
4:52 PM 68.0 °F 61.0 °F 78% 30.06 in 10.0 mi Calm Calm - N/A   Overcast
5:25 PM 68.0 °F 62.6 °F 83% 30.05 in 10.0 mi Calm Calm - N/A   Overcast
5:52 PM 69.1 °F 62.1 °F 78% 30.05 in 10.0 mi Calm Calm - N/A   Mostly Cloudy
6:24 PM 69.8 °F 62.6 °F 78% 30.02 in 10.0 mi Calm Calm - N/A   Mostly Cloudy
6:52 PM 68.0 °F 63.0 °F 84% 30.04 in 10.0 mi SE 3.5 mph - N/A   Partly Cloudy
7:52 PM 64.9 °F 63.0 °F 93% 30.05 in 7.0 mi Calm Calm - N/A   Clear
8:43 PM 64.4 °F 62.6 °F 94% 30.04 in 3.0 mi Calm Calm - 0.02 in Rain , Thunderstorm Light Rain
8:50 PM 64.4 °F 62.6 °F 94% 30.04 in 2.5 mi Calm Calm - 0.02 in Rain , Thunderstorm Light Rain
8:52 PM 64.0 °F 63.0 °F 96% 30.06 in 2.5 mi Calm Calm - 0.02 in Rain , Thunderstorm Light Rain
9:07 PM 64.4 °F 62.6 °F 94% 30.03 in 1.5 mi Calm Calm - 0.02 in Rain , Thunderstorm Heavy Rain
9:13 PM 64.4 °F 62.6 °F 94% 30.03 in 2.5 mi Calm Calm - 0.03 in Rain , Thunderstorm Light Rain
9:21 PM 64.4 °F 62.6 °F 94% 30.03 in 3.0 mi Variable 4.6 mph - 0.04 in Rain , Thunderstorm Light Thunderstorms and Rain
9:52 PM 64.9 °F 63.0 °F 93% 30.05 in 3.0 mi South 6.9 mph - 0.09 in Rain , Thunderstorm Light Thunderstorms and Rain
10:12 PM 64.4 °F 62.6 °F 94% 30.02 in 10.0 mi South 6.9 mph - 0.02 in Rain Light Rain
10:52 PM 64.0 °F 61.0 °F 90% 30.03 in 10.0 mi SW 4.6 mph - 0.07 in   Overcast
11:43 PM 62.6 °F 60.8 °F 94% 30.06 in 10.0 mi SW 8.1 mph - 0.03 in   Scattered Clouds
11:52 PM 62.1 °F 60.1 °F 93% 30.08 in 10.0 mi SSW 9.2 mph - 0.03 in   Mostly Cloudy